Find Starlink 36050

NORAD ID: 66602 Int'l Des: 2025-270 Owner: SPXS Country: US Constellation: starlink operational
LEOCIRCULAR

当前视图

正在加载3D地球...

About Starlink 36050

Starlink 36050 (NORAD 66602) is a starlink constellation satellite (v2 mini) launched Nov 22, 2025 by SPXS of US. It operates in LEO, CIRCULAR orbit with a mass of 575.00 kg.

关于 Starlink 36050

正在加载描述...

即将过境

Passes for default location (London). Set your location on the main map for personalized predictions.

高度历史

Loading altitude history...

两行轨道根数

1 66602U 25270Q 26159.58338785 .00026523 00000-0 96936-3 0 9990
2 66602 42.9987 263.1455 0001577 255.7551 104.3125 15.27597624 31500
Epoch: Jun 8, 2026 • Age: 12 hours

当前状态

高度 486.5 km
速度 7.62 km/s
星下点 -18.14°S, 54.27°W
发射日期 Nov 22, 2025
运行时间 0.5 years
类型 internet

技术详情

分类 Payload
质量 575.00 kg
干质量 530.00 kg
总质量 575.00 kg
长度 0.30 m
直径 4.10 m
跨度 29.00 m
形状 Box + pan
制造商 SPXS
平台类型 Starlink V2MO
阶段状态 In Orbit
所有者/国家 SPXS/US

Most Searched